To NAV CANADA Home Page Login to a new session Search on AWWS site Disclaimer Vers la page française équivalente Tips FAQ What's new on the site To the Forecasts and Observations / NOTAM section To "File a Flight Plan" website Publications and other links Update of the User's profile FIC Telephone Numbers My Weather Data Folder Route Weather Data Regional Weather Data Local Weather Data To the Forecasts and Observations / NOTAM section
Request Generated 11/16/2018 at 01:20:42 UTC . Weather information available at that time is displayed.

METAR/TAF

BERENS RIVER/MB    (show WxCam)

LWIS CYBV 160100Z AUTO 01008KT M11/M14 A3005=
LWIS CYBV 160000Z AUTO 36009KT M11/M14 A3004=
LWIS CYBV 152300Z AUTO 01006KT 350V050 M10/M13 A3001=

CYBV - No TAF is issued for this station

Your time UTC time
Weather data provided by Environment Canada and NAV CANADA